When you browse on this site, cookies collect data to enhance your experience and personalize the content and advertising you see.
Visit our Privacy Policy to learn more. By continuing to use the site, you agree to this use of cookies and data.
  • En España
  • Lista de países
  • Para 7 días
  • Temperatura del agua
  • El tiempo en el mapa
  • Informadores
  • user-avatar
    Iniciar sesión

    Tiempo cada hora Vonlyarovo

    Hoy, 2 Junio, Martes

    Tiempo Temperatura Precipitaciones Viento Presión Humedad
    00:00 +6°C° 0.8 mm 7 mps 740 mmHg 93%
    01:00 +6°C° 0.8 mm 7 mps 739 mmHg 93%
    02:00 +6°C° 0 mm 8 mps 739 mmHg 91%
    03:00 +6°C° 0.5 mm 8 mps 739 mmHg 91%
    04:00 +6°C° 0.5 mm 7 mps 738 mmHg 92%
    05:00 +5°C° 0.5 mm 7 mps 738 mmHg 93%
    06:00 +5°C° 1.4 mm 7 mps 738 mmHg 93%
    07:00 +5°C° 1.4 mm 8 mps 738 mmHg 94%
    08:00 +6°C° 0 mm 8 mps 738 mmHg 96%
    09:00 +6°C° 0.2 mm 8 mps 738 mmHg 94%
    10:00 +8°C° 0.2 mm 7 mps 738 mmHg 93%
    11:00 +8°C° 0.2 mm 7 mps 739 mmHg 92%
    12:00 +8°C° 0 mm 7 mps 739 mmHg 91%
    13:00 +9°C° 0 mm 8 mps 739 mmHg 90%
    14:00 +9°C° 0 mm 8 mps 739 mmHg 88%
    15:00 +9°C° 0.1 mm 7 mps 739 mmHg 87%
    16:00 +10°C° 0.1 mm 7 mps 739 mmHg 86%
    17:00 +10°C° 0.1 mm 7 mps 739 mmHg 85%
    18:00 +9°C° 0.4 mm 6 mps 739 mmHg 88%
    19:00 +9°C° 0.4 mm 6 mps 739 mmHg 90%
    20:00 +8°C° 0.4 mm 5 mps 739 mmHg 93%
    21:00 +8°C° 0.2 mm 5 mps 739 mmHg 94%
    22:00 +8°C° 0.2 mm 4 mps 738 mmHg 95%
    23:00 +8°C° 0.2 mm 4 mps 738 mmHg 96%

    Mañana, 3 Junio, Miércoles

    Tiempo Temperatura Precipitaciones Viento Presión Humedad
    00:00 +9°C° 0.1 mm 3 mps 738 mmHg 96%
    01:00 +9°C° 0.1 mm 3 mps 738 mmHg 97%
    02:00 +9°C° 0.1 mm 3 mps 739 mmHg 97%
    03:00 +9°C° 0 mm 2 mps 738 mmHg 97%
    04:00 +9°C° 0 mm 2 mps 738 mmHg 97%
    05:00 +9°C° 0 mm 2 mps 738 mmHg 98%
    06:00 +10°C° 0 mm 2 mps 738 mmHg 95%
    07:00 +12°C° 0 mm 2 mps 738 mmHg 92%
    08:00 +13°C° 0 mm 1 mps 738 mmHg 89%
    09:00 +14°C° 0.1 mm 1 mps 738 mmHg 82%
    10:00 +15°C° 0.1 mm 1 mps 738 mmHg 76%
    11:00 +18°C° 0.1 mm 1 mps 738 mmHg 69%
    12:00 +18°C° 0.1 mm 1 mps 738 mmHg 65%
    13:00 +19°C° 0.1 mm 1 mps 738 mmHg 60%
    14:00 +20°C° 0.1 mm 1 mps 737 mmHg 56%
    15:00 +20°C° 0 mm 1 mps 737 mmHg 58%
    16:00 +19°C° 0 mm 1 mps 737 mmHg 60%
    17:00 +19°C° 0 mm 1 mps 736 mmHg 62%
    18:00 +16°C° 0 mm 1 mps 736 mmHg 69%
    19:00 +15°C° 0 mm 1 mps 736 mmHg 77%
    20:00 +13°C° 0 mm 1 mps 736 mmHg 85%
    21:00 +12°C° 0 mm 1 mps 736 mmHg 87%
    22:00 +10°C° 0 mm 0 mps 735 mmHg 88%
    23:00 +9°C° 0 mm 0 mps 735 mmHg 90%

    Pasado mañana, 4 Junio, Jueves

    Tiempo Temperatura Precipitaciones Viento Presión Humedad
    00:00 +10°C° 0 mm 1 mps 735 mmHg 90%
    01:00 +9°C° 0 mm 1 mps 735 mmHg 91%
    02:00 +9°C° 0 mm 1 mps 735 mmHg 91%
    03:00 +9°C° 0 mm 1 mps 735 mmHg 91%
    04:00 +10°C° 0 mm 1 mps 735 mmHg 91%
    05:00 +9°C° 0 mm 2 mps 734 mmHg 91%
    06:00 +12°C° 0 mm 2 mps 735 mmHg 87%
    07:00 +12°C° 0 mm 3 mps 735 mmHg 83%
    08:00 +14°C° 0 mm 3 mps 735 mmHg 79%
    09:00 +15°C° 0.3 mm 4 mps 735 mmHg 78%
    10:00 +15°C° 0.3 mm 4 mps 735 mmHg 77%
    11:00 +16°C° 0.3 mm 5 mps 735 mmHg 75%
    12:00 +16°C° 0.8 mm 5 mps 735 mmHg 77%
    13:00 +17°C° 0.8 mm 4 mps 735 mmHg 78%
    14:00 +17°C° 0.8 mm 4 mps 735 mmHg 79%
    15:00 +17°C° 0.4 mm 4 mps 735 mmHg 79%
    16:00 +17°C° 0.4 mm 4 mps 735 mmHg 79%
    17:00 +17°C° 0.4 mm 4 mps 735 mmHg 79%
    18:00 +14°C° 0.2 mm 4 mps 735 mmHg 83%
    19:00 +13°C° 0.2 mm 3 mps 735 mmHg 87%
    20:00 +12°C° 0.2 mm 3 mps 735 mmHg 91%
    21:00 +11°C° 0 mm 3 mps 735 mmHg 92%
    22:00 +11°C° 0 mm 3 mps 735 mmHg 94%
    23:00 +10°C° 0 mm 3 mps 735 mmHg 95%

    5 Junio, Viernes

    Tiempo Temperatura Precipitaciones Viento Presión Humedad
    00:00 +10°C° 0 mm 3 mps 735 mmHg 95%
    01:00 +9°C° 0 mm 3 mps 735 mmHg 96%
    02:00 +9°C° 0 mm 3 mps 735 mmHg 96%
    03:00 +9°C° 0 mm 3 mps 735 mmHg 96%
    04:00 +10°C° 0 mm 3 mps 736 mmHg 96%
    05:00 +10°C° 0 mm 3 mps 736 mmHg 97%
    06:00 +11°C° 0 mm 4 mps 736 mmHg 92%
    07:00 +13°C° 0 mm 4 mps 736 mmHg 88%
    08:00 +14°C° 0 mm 4 mps 736 mmHg 83%
    09:00 +15°C° 0.1 mm 4 mps 736 mmHg 78%
    10:00 +17°C° 0.1 mm 4 mps 736 mmHg 73%
    11:00 +17°C° 0.1 mm 5 mps 736 mmHg 68%
    12:00 +19°C° 0.1 mm 5 mps 736 mmHg 67%
    13:00 +19°C° 0.1 mm 5 mps 736 mmHg 67%
    14:00 +20°C° 0.1 mm 5 mps 736 mmHg 66%
    15:00 +20°C° 0.1 mm 4 mps 736 mmHg 69%
    16:00 +20°C° 0.1 mm 4 mps 736 mmHg 72%
    17:00 +19°C° 0.1 mm 4 mps 736 mmHg 76%
    18:00 +18°C° 0.2 mm 4 mps 736 mmHg 80%
    19:00 +17°C° 0.2 mm 4 mps 736 mmHg 85%
    20:00 +15°C° 0.2 mm 4 mps 736 mmHg 90%
    21:00 +14°C° 0 mm 4 mps 736 mmHg 91%
    22:00 +14°C° 0 mm 4 mps 737 mmHg 93%
    23:00 +14°C° 0 mm 4 mps 737 mmHg 94%

    6 Junio, Sábado

    Tiempo Temperatura Precipitaciones Viento Presión Humedad
    00:00 +14°C° 0.2 mm 4 mps 737 mmHg 95%
    01:00 +14°C° 0.2 mm 4 mps 736 mmHg 96%
    02:00 +14°C° 0.2 mm 4 mps 736 mmHg 97%
    03:00 +14°C° 1.4 mm 4 mps 736 mmHg 97%
    04:00 +14°C° 1.4 mm 4 mps 736 mmHg 97%
    05:00 +15°C° 1.4 mm 5 mps 736 mmHg 97%
    06:00 +15°C° 0.1 mm 5 mps 736 mmHg 96%
    07:00 +16°C° 0.1 mm 5 mps 737 mmHg 95%
    08:00 +17°C° 0.1 mm 5 mps 737 mmHg 94%
    09:00 +19°C° 0.2 mm 5 mps 737 mmHg 90%
    10:00 +20°C° 0.2 mm 5 mps 737 mmHg 86%
    11:00 +21°C° 0.2 mm 5 mps 738 mmHg 83%
    12:00 +21°C° 1.2 mm 5 mps 738 mmHg 86%
    13:00 +20°C° 1.2 mm 5 mps 738 mmHg 89%
    14:00 +19°C° 1.2 mm 5 mps 738 mmHg 91%
    15:00 +19°C° 0.2 mm 4 mps 739 mmHg 90%
    16:00 +19°C° 0.2 mm 3 mps 739 mmHg 89%
    17:00 +20°C° 0.2 mm 3 mps 740 mmHg 88%
    18:00 +19°C° 0 mm 2 mps 740 mmHg 90%
    19:00 +18°C° 0 mm 2 mps 740 mmHg 92%
    20:00 +18°C° 0 mm 1 mps 741 mmHg 94%
    21:00 +16°C° 0 mm 1 mps 741 mmHg 94%
    22:00 +15°C° 0 mm 1 mps 742 mmHg 94%
    23:00 +14°C° 0 mm 1 mps 742 mmHg 94%

    7 Junio, Domingo

    Tiempo Temperatura Precipitaciones Viento Presión Humedad
    00:00 +14°C° 0 mm 1 mps 742 mmHg 94%
    01:00 +14°C° 0 mm 1 mps 743 mmHg 94%
    02:00 +13°C° 0 mm 1 mps 743 mmHg 93%
    03:00 +13°C° 0 mm 1 mps 743 mmHg 93%
    04:00 +14°C° 0 mm 1 mps 744 mmHg 93%
    05:00 +14°C° 0 mm 1 mps 744 mmHg 93%
    06:00 +16°C° 0 mm 1 mps 744 mmHg 89%
    07:00 +17°C° 0 mm 2 mps 744 mmHg 85%
    08:00 +19°C° 0 mm 2 mps 744 mmHg 81%
    09:00 +21°C° 0 mm 1 mps 745 mmHg 77%
    10:00 +23°C° 0 mm 1 mps 745 mmHg 73%
    11:00 +24°C° 0 mm 1 mps 745 mmHg 68%
    12:00 +24°C° 0.1 mm 1 mps 745 mmHg 67%
    13:00 +25°C° 0.1 mm 1 mps 745 mmHg 66%
    14:00 +25°C° 0.1 mm 1 mps 744 mmHg 65%
    15:00 +25°C° 0.1 mm 1 mps 744 mmHg 68%
    16:00 +25°C° 0.1 mm 1 mps 744 mmHg 71%
    17:00 +24°C° 0.1 mm 1 mps 744 mmHg 74%
    18:00 +23°C° 0.6 mm 1 mps 744 mmHg 79%
    19:00 +22°C° 0.6 mm 1 mps 744 mmHg 84%
    20:00 +20°C° 0.6 mm 1 mps 744 mmHg 89%
    21:00 +20°C° 0.7 mm 1 mps 744 mmHg 91%
    22:00 +19°C° 0.7 mm 1 mps 744 mmHg 92%
    23:00 +19°C° 0.7 mm 1 mps 744 mmHg 94%
    Mostrar más